AAL983 TJSJ-KMCO

Flight info

Callsign AAL983
Flight time 2h 48m
Altitude 36000
Route ACONY3 SAPPO Y280 OCTAL MUNGI1
Aircraft A20N/M-SDE2E3FGHIRWXY/LB1

Departure

Time 2026-05-04 21:53
Airport Luis Munoz Marin International Airport (TJSJ)

Arrival

Time 2026-05-05 00:41
Airport Orlando International Airport (KMCO)
Time Latitude Longitude Altitude Speed Heading
2026-05-04 21:42 18.43826 -66.01058 20 ft 0 kts 340°
2026-05-04 21:50 18.43840 -66.01067 20 ft 10 kts 317°
2026-05-04 21:51 18.43874 -66.01164 19 ft 15 kts 256°
2026-05-04 21:51 18.43827 -66.01296 19 ft 24 kts 247°
2026-05-04 21:51 18.43801 -66.01435 19 ft 14 kts 301°
2026-05-04 21:51 18.43882 -66.01456 19 ft 12 kts 29°
2026-05-04 21:52 18.43908 -66.01409 20 ft 7 kts 65°
2026-05-04 21:52 18.43984 -66.01218 20 ft 62 kts 66°
2026-05-04 21:52 18.44248 -66.00549 21 ft 137 kts 68°
2026-05-04 21:52 18.44726 -65.99414 105 ft 191 kts 70°
2026-05-04 21:53 18.45307 -65.98073 625 ft 210 kts 67°
2026-05-04 21:53 18.46227 -65.96847 1496 ft 221 kts 34°
2026-05-04 21:53 18.47724 -65.96413 2328 ft 235 kts
2026-05-04 21:53 18.49424 -65.96749 2646 ft 265 kts 338°
2026-05-04 21:54 18.51137 -65.97584 3188 ft 276 kts 335°
2026-05-04 21:54 18.52693 -65.98790 3828 ft 281 kts 311°
2026-05-04 21:54 18.54030 -66.00302 4543 ft 284 kts 314°
2026-05-04 21:54 18.55400 -66.01815 5260 ft 286 kts 312°
2026-05-04 21:55 18.56750 -66.03367 5998 ft 289 kts 311°
2026-05-04 21:55 18.58092 -66.04962 6688 ft 292 kts 310°
2026-05-04 21:55 18.59425 -66.06581 7371 ft 294 kts 309°
2026-05-04 21:55 18.60749 -66.08205 8066 ft 296 kts 309°
2026-05-04 21:56 18.62087 -66.09857 8791 ft 297 kts 309°
2026-05-04 21:56 18.63435 -66.11526 9511 ft 300 kts 309°
2026-05-04 21:56 18.64791 -66.13210 10180 ft 303 kts 309°
2026-05-04 21:56 18.66187 -66.14947 10487 ft 318 kts 309°
2026-05-04 21:57 18.67659 -66.16779 10712 ft 336 kts 309°
2026-05-04 21:57 18.69203 -66.18700 10925 ft 351 kts 309°
2026-05-04 21:57 18.70803 -66.20692 11307 ft 359 kts 309°
2026-05-04 21:57 18.72428 -66.22715 11817 ft 362 kts 309°
2026-05-04 21:58 18.74043 -66.24726 12362 ft 364 kts 309°
2026-05-04 21:58 18.75680 -66.26766 12917 ft 366 kts 309°
2026-05-04 21:58 18.77331 -66.28824 13485 ft 367 kts 309°
2026-05-04 21:58 18.78987 -66.30888 14026 ft 369 kts 309°
2026-05-04 21:59 18.80643 -66.32952 14571 ft 369 kts 309°
2026-05-04 21:59 18.82298 -66.35016 15162 ft 367 kts 308°
2026-05-04 21:59 18.83948 -66.37075 15759 ft 367 kts 308°
2026-05-04 21:59 18.85600 -66.39139 16276 ft 368 kts 308°
2026-05-04 22:00 18.87240 -66.41188 16796 ft 370 kts 308°
2026-05-04 22:00 18.88906 -66.43268 17307 ft 372 kts 308°
2026-05-04 22:00 18.90581 -66.45363 17806 ft 374 kts 308°
2026-05-04 22:00 18.92264 -66.47468 18281 ft 376 kts 308°
2026-05-04 22:01 18.93954 -66.49582 18667 ft 378 kts 308°
2026-05-04 22:01 18.95662 -66.51719 18990 ft 382 kts 308°
2026-05-04 22:01 18.97386 -66.53878 19326 ft 386 kts 308°
2026-05-04 22:01 18.99126 -66.56058 19671 ft 389 kts 308°
2026-05-04 22:02 19.00885 -66.58260 20008 ft 393 kts 308°
2026-05-04 22:02 19.02653 -66.60475 20338 ft 396 kts 308°
2026-05-04 22:02 19.04436 -66.62711 20669 ft 400 kts 308°
2026-05-04 22:02 19.06219 -66.64947 20995 ft 403 kts 308°
2026-05-04 22:03 19.08035 -66.67224 21316 ft 407 kts 308°
2026-05-04 22:03 19.09868 -66.69523 21659 ft 410 kts 308°
2026-05-04 22:03 19.11714 -66.71841 21970 ft 414 kts 308°
2026-05-04 22:03 19.13582 -66.74185 22274 ft 418 kts 308°
2026-05-04 22:04 19.15466 -66.76551 22574 ft 422 kts 308°
2026-05-04 22:04 19.17370 -66.78947 22869 ft 427 kts 308°
2026-05-04 22:04 19.19291 -66.81361 23162 ft 431 kts 308°
2026-05-04 22:04 19.21232 -66.83803 23462 ft 435 kts 308°
2026-05-04 22:05 19.23182 -66.86256 23736 ft 438 kts 308°
2026-05-04 22:05 19.25153 -66.88737 24078 ft 439 kts 308°
2026-05-04 22:05 19.27118 -66.91212 24452 ft 439 kts 308°
2026-05-04 22:05 19.29057 -66.93655 24825 ft 439 kts 308°
2026-05-04 22:06 19.31025 -66.96136 25198 ft 440 kts 308°
2026-05-04 22:06 19.32992 -66.98616 25556 ft 440 kts 308°
2026-05-04 22:06 19.34968 -67.01107 25906 ft 441 kts 308°
2026-05-04 22:06 19.36947 -67.03605 26240 ft 442 kts 309°
2026-05-04 22:07 19.38928 -67.06106 26570 ft 444 kts 309°
2026-05-04 22:07 19.40918 -67.08619 26883 ft 445 kts 309°
2026-05-04 22:07 19.42910 -67.11136 27192 ft 446 kts 309°
2026-05-04 22:07 19.44908 -67.13661 27496 ft 447 kts 309°
2026-05-04 22:08 19.46907 -67.16190 27793 ft 449 kts 309°
2026-05-04 22:08 19.48917 -67.18732 28079 ft 450 kts 309°
2026-05-04 22:08 19.50930 -67.21280 28370 ft 451 kts 309°
2026-05-04 22:08 19.52922 -67.23802 28656 ft 452 kts 309°
2026-05-04 22:09 19.54946 -67.26366 28939 ft 454 kts 309°
2026-05-04 22:09 19.56974 -67.28936 29217 ft 455 kts 309°
2026-05-04 22:09 19.59006 -67.31512 29489 ft 456 kts 309°
2026-05-04 22:09 19.61039 -67.34091 29843 ft 455 kts 309°
2026-05-04 22:10 19.63067 -67.36664 30242 ft 452 kts 309°
2026-05-04 22:10 19.65080 -67.39220 30551 ft 451 kts 309°
2026-05-04 22:10 19.67094 -67.41777 30819 ft 451 kts 308°
2026-05-04 22:10 19.69107 -67.44334 31086 ft 451 kts 308°
2026-05-04 22:11 19.71118 -67.46892 31366 ft 450 kts 308°
2026-05-04 22:11 19.73126 -67.49445 31650 ft 450 kts 308°
2026-05-04 22:11 19.75129 -67.51993 31924 ft 449 kts 308°
2026-05-04 22:11 19.77129 -67.54538 32201 ft 448 kts 308°
2026-05-04 22:12 19.79102 -67.57051 32461 ft 448 kts 308°
2026-05-04 22:12 19.81097 -67.59592 32728 ft 447 kts 308°
2026-05-04 22:12 19.83093 -67.62137 32984 ft 447 kts 308°
2026-05-04 22:12 19.85079 -67.64668 33252 ft 446 kts 308°
2026-05-04 22:13 19.87065 -67.67201 33514 ft 446 kts 308°
2026-05-04 22:13 19.89051 -67.69736 33767 ft 445 kts 308°
2026-05-04 22:13 19.91032 -67.72265 34011 ft 445 kts 308°
2026-05-04 22:13 19.93005 -67.74784 34244 ft 443 kts 308°
2026-05-04 22:14 19.94976 -67.77302 34506 ft 441 kts 307°
2026-05-04 22:14 19.96936 -67.79807 34777 ft 439 kts 307°
2026-05-04 22:14 19.98874 -67.82286 35042 ft 437 kts 307°
2026-05-04 22:14 20.00792 -67.84739 35293 ft 435 kts 307°
2026-05-04 22:15 20.02727 -67.87216 35520 ft 433 kts 307°
2026-05-04 22:15 20.04647 -67.89674 35738 ft 431 kts 307°
2026-05-04 22:15 20.06561 -67.92127 35951 ft 430 kts 307°
2026-05-04 22:16 20.10386 -67.97030 36031 ft 430 kts 307°
2026-05-04 22:16 20.14197 -68.01918 36030 ft 428 kts 307°
2026-05-04 22:17 20.18005 -68.06809 36030 ft 428 kts 307°
2026-05-04 22:17 20.21787 -68.11668 36030 ft 428 kts 307°
2026-05-04 22:18 20.25591 -68.16561 36025 ft 428 kts 307°
2026-05-04 22:18 20.29390 -68.21451 36027 ft 428 kts 307°
2026-05-04 22:19 20.33170 -68.26321 36027 ft 428 kts 307°
2026-05-04 22:19 20.36965 -68.31213 36032 ft 428 kts 307°
2026-05-04 22:20 20.40757 -68.36107 36025 ft 428 kts 307°
2026-05-04 22:20 20.44406 -68.41102 36028 ft 426 kts 302°
2026-05-04 22:21 20.47634 -68.46404 36025 ft 425 kts 300°
2026-05-04 22:21 20.50748 -68.51765 36025 ft 425 kts 300°
2026-05-04 22:22 20.53847 -68.57096 36021 ft 425 kts 300°
2026-05-04 22:22 20.56980 -68.62449 36027 ft 425 kts 300°
2026-05-04 22:23 20.60123 -68.67803 36020 ft 425 kts 300°
2026-05-04 22:23 20.63266 -68.73161 36028 ft 425 kts 300°
2026-05-04 22:24 20.66406 -68.78518 36021 ft 425 kts 300°
2026-05-04 22:24 20.69542 -68.83874 36016 ft 425 kts 300°
2026-05-04 22:25 20.72673 -68.89228 36022 ft 425 kts 300°
2026-05-04 22:25 20.75780 -68.94547 36024 ft 425 kts 300°
2026-05-04 22:26 20.78915 -68.99916 36016 ft 424 kts 300°
2026-05-04 22:26 20.82039 -69.05275 36017 ft 425 kts 300°
2026-05-04 22:27 20.85166 -69.10641 36018 ft 424 kts 300°
2026-05-04 22:27 20.88269 -69.15972 36019 ft 424 kts 300°
2026-05-04 22:28 20.91388 -69.21336 36020 ft 424 kts 300°
2026-05-04 22:28 20.94506 -69.26705 36020 ft 424 kts 300°
2026-05-04 22:29 20.97618 -69.32067 36015 ft 424 kts 300°
2026-05-04 22:29 21.00712 -69.37403 36021 ft 424 kts 300°
2026-05-04 22:30 21.03819 -69.42766 36016 ft 424 kts 300°
2026-05-04 22:30 21.06925 -69.48134 36021 ft 424 kts 300°
2026-05-04 22:31 21.10026 -69.53497 36018 ft 423 kts 300°
2026-05-04 22:31 21.13130 -69.58871 36016 ft 423 kts 300°
2026-05-04 22:32 21.16224 -69.64234 36015 ft 423 kts 300°
2026-05-04 22:32 21.19319 -69.69602 36020 ft 423 kts 300°
2026-05-04 22:33 21.22408 -69.74966 36021 ft 423 kts 300°
2026-05-04 22:33 21.25481 -69.80307 36014 ft 423 kts 300°
2026-05-04 22:34 21.28562 -69.85669 36011 ft 423 kts 300°
2026-05-04 22:34 21.31129 -69.90139 36013 ft 423 kts 300°
2026-05-04 22:35 21.34219 -69.95525 36011 ft 422 kts 300°
2026-05-04 22:35 21.37298 -70.00898 36015 ft 422 kts 300°
2026-05-04 22:36 21.40357 -70.06241 36014 ft 422 kts 300°
2026-05-04 22:36 21.43431 -70.11615 36013 ft 421 kts 299°
2026-05-04 22:37 21.46492 -70.16970 36013 ft 420 kts 299°
2026-05-04 22:37 21.49546 -70.22319 36013 ft 419 kts 299°
2026-05-04 22:38 21.52573 -70.27627 36013 ft 419 kts 299°
2026-05-04 22:38 21.55617 -70.32970 36015 ft 419 kts 299°
2026-05-04 22:39 21.58661 -70.38317 36012 ft 419 kts 299°
2026-05-04 22:39 21.61698 -70.43657 36013 ft 419 kts 299°
2026-05-04 22:40 21.64736 -70.49005 36016 ft 418 kts 299°
2026-05-04 22:40 21.67771 -70.54353 36014 ft 418 kts 299°
2026-05-04 22:41 21.70798 -70.59692 36016 ft 418 kts 299°
2026-05-04 22:41 21.73814 -70.65016 36016 ft 418 kts 299°
2026-05-04 22:42 21.76837 -70.70359 36016 ft 418 kts 299°
2026-05-04 22:42 21.79856 -70.75698 36017 ft 417 kts 299°
2026-05-04 22:43 21.82871 -70.81036 36016 ft 417 kts 299°
2026-05-04 22:43 21.85862 -70.86339 36018 ft 417 kts 299°
2026-05-04 22:44 21.88876 -70.91685 36015 ft 417 kts 299°
2026-05-04 22:44 21.91883 -70.97026 36015 ft 417 kts 299°
2026-05-04 22:45 21.94886 -71.02365 36017 ft 416 kts 299°
2026-05-04 22:45 21.99386 -71.10373 36018 ft 416 kts 299°
2026-05-04 22:46 22.02385 -71.15719 36016 ft 416 kts 299°
2026-05-04 22:46 22.05379 -71.21060 36015 ft 416 kts 299°
2026-05-04 22:47 22.08352 -71.26369 36015 ft 416 kts 299°
2026-05-04 22:47 22.11346 -71.31720 36015 ft 416 kts 299°
2026-05-04 22:48 22.14331 -71.37062 36015 ft 416 kts 298°
2026-05-04 22:48 22.17316 -71.42408 36018 ft 415 kts 298°
2026-05-04 22:49 22.20297 -71.47753 36017 ft 415 kts 298°
2026-05-04 22:49 22.23258 -71.53066 36018 ft 415 kts 298°
2026-05-04 22:50 22.26238 -71.58420 36014 ft 415 kts 298°
2026-05-04 22:50 22.29211 -71.63766 36016 ft 415 kts 298°
2026-05-04 22:51 22.32179 -71.69108 36017 ft 415 kts 298°
2026-05-04 22:51 22.35148 -71.74459 36018 ft 415 kts 298°
2026-05-04 22:52 22.38115 -71.79812 36019 ft 415 kts 298°
2026-05-04 22:52 22.41060 -71.85129 36017 ft 415 kts 298°
2026-05-04 22:53 22.44019 -71.90476 36015 ft 414 kts 298°
2026-05-04 22:53 22.46977 -71.95829 36017 ft 414 kts 298°
2026-05-04 22:54 22.49931 -72.01179 36016 ft 414 kts 298°
2026-05-04 22:54 22.52882 -72.06529 36015 ft 414 kts 298°
2026-05-04 22:55 22.55831 -72.11881 36015 ft 414 kts 298°
2026-05-04 22:55 22.58780 -72.17240 36015 ft 414 kts 298°
2026-05-04 22:56 22.61705 -72.22559 36015 ft 414 kts 298°
2026-05-04 22:56 22.64652 -72.27925 36017 ft 414 kts 298°
2026-05-04 22:57 22.67595 -72.33287 36015 ft 414 kts 298°
2026-05-04 22:57 22.70521 -72.38626 36016 ft 414 kts 298°
2026-05-04 22:58 22.73462 -72.43997 36016 ft 414 kts 298°
2026-05-04 22:58 22.76379 -72.49329 36018 ft 414 kts 298°
2026-05-04 22:59 22.79309 -72.54691 36018 ft 413 kts 298°
2026-05-04 22:59 22.82238 -72.60057 36018 ft 414 kts 298°
2026-05-04 23:00 22.85167 -72.65427 36016 ft 413 kts 298°
2026-05-04 23:00 22.88095 -72.70804 36022 ft 413 kts 297°
2026-05-04 23:01 22.91015 -72.76168 36015 ft 413 kts 297°
2026-05-04 23:01 22.93932 -72.81534 36019 ft 413 kts 297°
2026-05-04 23:02 22.96833 -72.86878 36019 ft 413 kts 297°
2026-05-04 23:02 22.99750 -72.92254 36017 ft 412 kts 297°
2026-05-04 23:03 23.02661 -72.97627 36019 ft 412 kts 297°
2026-05-04 23:03 23.05566 -73.02994 36016 ft 412 kts 297°
2026-05-04 23:04 23.08445 -73.08320 36014 ft 411 kts 297°
2026-05-04 23:04 23.11343 -73.13686 36018 ft 411 kts 297°
2026-05-04 23:05 23.14239 -73.19054 36014 ft 411 kts 297°
2026-05-04 23:05 23.17124 -73.24407 36004 ft 410 kts 297°
2026-05-04 23:06 23.19993 -73.29737 36016 ft 410 kts 297°
2026-05-04 23:06 23.22871 -73.35088 36010 ft 410 kts 297°
2026-05-04 23:07 23.25748 -73.40442 36015 ft 409 kts 296°
2026-05-04 23:07 23.28615 -73.45784 36007 ft 409 kts 296°
2026-05-04 23:08 23.31481 -73.51131 36006 ft 409 kts 296°
2026-05-04 23:08 23.34347 -73.56482 36009 ft 408 kts 296°
2026-05-04 23:09 23.37205 -73.61826 36011 ft 408 kts 296°
2026-05-04 23:09 23.40043 -73.67136 36009 ft 408 kts 296°
2026-05-04 23:10 23.42892 -73.72474 36011 ft 407 kts 296°
2026-05-04 23:10 23.45737 -73.77810 36009 ft 407 kts 296°
2026-05-04 23:11 23.48561 -73.83110 36010 ft 406 kts 296°
2026-05-04 23:11 23.51394 -73.88434 36011 ft 406 kts 296°
2026-05-04 23:12 23.54223 -73.93757 36012 ft 406 kts 296°
2026-05-04 23:12 23.57053 -73.99087 36009 ft 405 kts 296°
2026-05-04 23:13 23.59878 -74.04415 36011 ft 405 kts 296°
2026-05-04 23:13 23.62697 -74.09737 36011 ft 405 kts 295°
2026-05-04 23:14 23.65502 -74.15037 36011 ft 405 kts 295°
2026-05-04 23:14 23.68318 -74.20364 36012 ft 405 kts 295°
2026-05-04 23:15 23.71126 -74.25683 36008 ft 404 kts 295°
2026-05-04 23:15 23.73935 -74.31009 36011 ft 404 kts 295°
2026-05-04 23:16 23.76722 -74.36298 36016 ft 404 kts 295°
2026-05-04 23:16 23.79522 -74.41618 36017 ft 404 kts 295°
2026-05-04 23:17 23.82322 -74.46943 36026 ft 404 kts 295°
2026-05-04 23:17 23.85118 -74.52267 36030 ft 403 kts 295°
2026-05-04 23:18 23.87909 -74.57588 36033 ft 403 kts 295°
2026-05-04 23:18 23.90696 -74.62906 36032 ft 403 kts 295°
2026-05-04 23:19 23.93482 -74.68228 36032 ft 403 kts 295°
2026-05-04 23:19 23.96244 -74.73510 36026 ft 402 kts 295°
2026-05-04 23:20 23.99020 -74.78824 36022 ft 402 kts 295°
2026-05-04 23:20 24.01792 -74.84136 36014 ft 402 kts 295°
2026-05-04 23:21 24.04096 -74.88557 36012 ft 401 kts 295°
2026-05-04 23:21 24.06862 -74.93870 36002 ft 401 kts 295°
2026-05-04 23:22 24.09622 -74.99175 36003 ft 401 kts 295°
2026-05-04 23:22 24.12363 -75.04451 36001 ft 400 kts 294°
2026-05-04 23:23 24.15114 -75.09747 36012 ft 396 kts 293°
2026-05-04 23:23 24.17821 -75.14963 36001 ft 392 kts 293°
2026-05-04 23:24 24.20506 -75.20152 36004 ft 392 kts 293°
2026-05-04 23:24 24.23190 -75.25347 36001 ft 392 kts 293°
2026-05-04 23:25 24.25875 -75.30543 36002 ft 391 kts 293°
2026-05-04 23:25 24.28557 -75.35739 36003 ft 391 kts 293°
2026-05-04 23:26 24.31222 -75.40906 36002 ft 391 kts 293°
2026-05-04 23:26 24.33900 -75.46104 36003 ft 391 kts 293°
2026-05-04 23:27 24.36570 -75.51294 36002 ft 390 kts 293°
2026-05-04 23:27 24.39240 -75.56488 36004 ft 390 kts 293°
2026-05-04 23:28 24.41903 -75.61675 36002 ft 390 kts 293°
2026-05-04 23:28 24.44545 -75.66826 35998 ft 389 kts 292°
2026-05-04 23:29 24.47200 -75.72009 36001 ft 389 kts 292°
2026-05-04 23:29 24.49858 -75.77201 36001 ft 389 kts 292°
2026-05-04 23:30 24.52505 -75.82381 35998 ft 389 kts 292°
2026-05-04 23:30 24.55135 -75.87531 35999 ft 388 kts 292°
2026-05-04 23:31 24.57778 -75.92713 36007 ft 388 kts 292°
2026-05-04 23:31 24.60418 -75.97893 36004 ft 388 kts 292°
2026-05-04 23:32 24.63053 -76.03071 36000 ft 388 kts 292°
2026-05-04 23:32 24.65684 -76.08245 36002 ft 387 kts 292°
2026-05-04 23:33 24.68306 -76.13407 36002 ft 387 kts 292°
2026-05-04 23:33 24.70927 -76.18572 35999 ft 387 kts 292°
2026-05-04 23:34 24.73552 -76.23752 35999 ft 387 kts 292°
2026-05-04 23:34 24.76171 -76.28928 35999 ft 386 kts 292°
2026-05-04 23:35 24.78774 -76.34075 35999 ft 386 kts 292°
2026-05-04 23:35 24.81385 -76.39243 36002 ft 386 kts 292°
2026-05-04 23:36 24.83977 -76.44382 36003 ft 386 kts 292°
2026-05-04 23:36 24.86580 -76.49547 36000 ft 385 kts 291°
2026-05-04 23:37 24.89181 -76.54712 35997 ft 385 kts 291°
2026-05-04 23:37 24.91775 -76.59872 35994 ft 385 kts 291°
2026-05-04 23:38 24.94366 -76.65029 35998 ft 384 kts 291°
2026-05-04 23:38 24.96953 -76.70185 35994 ft 384 kts 291°
2026-05-04 23:39 24.99522 -76.75310 35993 ft 384 kts 291°
2026-05-04 23:39 25.02107 -76.80473 35994 ft 384 kts 291°
2026-05-04 23:40 25.04682 -76.85624 35996 ft 384 kts 291°
2026-05-04 23:40 25.07261 -76.90786 35997 ft 384 kts 291°
2026-05-04 23:41 25.09834 -76.95943 36002 ft 384 kts 291°
2026-05-04 23:41 25.12407 -77.01104 35996 ft 384 kts 291°
2026-05-04 23:42 25.14980 -77.06271 35999 ft 384 kts 291°
2026-05-04 23:42 25.17547 -77.11434 36001 ft 384 kts 291°
2026-05-04 23:43 25.20117 -77.16607 36004 ft 384 kts 291°
2026-05-04 23:43 25.22668 -77.21749 36004 ft 384 kts 291°
2026-05-04 23:44 25.25235 -77.26927 36008 ft 384 kts 291°
2026-05-04 23:44 25.27800 -77.32108 36006 ft 384 kts 291°
2026-05-04 23:45 25.29995 -77.37414 36007 ft 378 kts 285°
2026-05-04 23:45 25.31831 -77.42848 36004 ft 377 kts 283°
2026-05-04 23:46 25.33587 -77.48274 36006 ft 377 kts 283°
2026-05-04 23:46 25.35347 -77.53738 36005 ft 377 kts 283°
2026-05-04 23:47 25.37113 -77.59200 36004 ft 377 kts 284°
2026-05-04 23:47 25.38883 -77.64667 36003 ft 377 kts 284°
2026-05-04 23:48 25.40643 -77.70105 36001 ft 377 kts 284°
2026-05-04 23:48 25.42410 -77.75571 36004 ft 377 kts 284°
2026-05-04 23:49 25.43996 -77.81084 36001 ft 375 kts 281°
2026-05-04 23:49 25.45375 -77.86646 36001 ft 375 kts 280°
2026-05-04 23:50 25.46731 -77.92220 36000 ft 375 kts 280°
2026-05-04 23:50 25.48100 -77.97760 36001 ft 375 kts 281°
2026-05-04 23:51 25.49491 -78.03335 36000 ft 375 kts 281°
2026-05-04 23:51 25.50884 -78.08915 36002 ft 375 kts 281°
2026-05-04 23:52 25.52266 -78.14457 36002 ft 375 kts 281°
2026-05-04 23:52 25.53652 -78.20034 36002 ft 375 kts 281°
2026-05-04 23:53 25.55036 -78.25613 36002 ft 376 kts 281°
2026-05-04 23:53 25.56418 -78.31192 36003 ft 376 kts 281°
2026-05-04 23:54 25.57792 -78.36747 36003 ft 376 kts 281°
2026-05-04 23:54 25.59169 -78.42327 35999 ft 376 kts 281°
2026-05-04 23:55 25.60545 -78.47913 36002 ft 375 kts 281°
2026-05-04 23:56 25.62607 -78.56297 36003 ft 376 kts 281°
2026-05-04 23:56 25.63975 -78.61877 36003 ft 376 kts 281°
2026-05-04 23:57 25.65342 -78.67458 36002 ft 375 kts 281°
2026-05-04 23:57 25.66710 -78.73053 36004 ft 375 kts 281°
2026-05-04 23:58 25.68072 -78.78637 36005 ft 375 kts 281°
2026-05-04 23:58 25.69434 -78.84228 36006 ft 375 kts 281°
2026-05-04 23:59 25.70792 -78.89813 36005 ft 375 kts 281°
2026-05-04 23:59 25.72150 -78.95409 35966 ft 376 kts 281°
2026-05-04 23:59 25.72823 -78.98191 35735 ft 378 kts 281°
2026-05-05 00:00 25.73505 -79.01012 35491 ft 380 kts 281°
2026-05-05 00:00 25.74880 -79.06701 35020 ft 383 kts 281°
2026-05-05 00:00 25.75574 -79.09571 34789 ft 384 kts 281°
2026-05-05 00:01 25.76266 -79.12439 34546 ft 386 kts 281°
2026-05-05 00:01 25.76961 -79.15323 34318 ft 387 kts 281°
2026-05-05 00:01 25.77658 -79.18219 34089 ft 389 kts 281°
2026-05-05 00:01 25.78356 -79.21120 33837 ft 390 kts 281°
2026-05-05 00:02 25.79049 -79.24002 33577 ft 391 kts 281°
2026-05-05 00:02 25.79752 -79.26933 33315 ft 392 kts 281°
2026-05-05 00:02 25.80455 -79.29862 33061 ft 393 kts 281°
2026-05-05 00:02 25.81159 -79.32802 32801 ft 394 kts 281°
2026-05-05 00:03 25.81864 -79.35745 32545 ft 395 kts 282°
2026-05-05 00:03 25.82570 -79.38694 32299 ft 396 kts 282°
2026-05-05 00:03 25.83276 -79.41651 32060 ft 396 kts 282°
2026-05-05 00:03 25.83982 -79.44608 31804 ft 397 kts 282°
2026-05-05 00:04 25.84691 -79.47581 31558 ft 397 kts 282°
2026-05-05 00:04 25.85397 -79.50539 31325 ft 397 kts 282°
2026-05-05 00:04 25.86103 -79.53505 31081 ft 395 kts 282°
2026-05-05 00:04 25.86802 -79.56442 30840 ft 393 kts 282°
2026-05-05 00:05 25.87499 -79.59373 30605 ft 391 kts 282°
2026-05-05 00:05 25.88184 -79.62257 30371 ft 390 kts 282°
2026-05-05 00:05 25.88873 -79.65165 30136 ft 388 kts 282°
2026-05-05 00:05 25.89558 -79.68056 29880 ft 386 kts 282°
2026-05-05 00:06 25.90240 -79.70934 29613 ft 385 kts 282°
2026-05-05 00:06 25.90920 -79.73810 29342 ft 383 kts 283°
2026-05-05 00:06 25.91608 -79.76665 29072 ft 382 kts 284°
2026-05-05 00:06 25.92174 -79.78509 28900 ft 382 kts 288°
2026-05-05 00:07 25.93305 -79.81196 28640 ft 384 kts 295°
2026-05-05 00:07 25.94650 -79.83755 28385 ft 384 kts 297°
2026-05-05 00:07 25.96048 -79.86287 28129 ft 383 kts 297°
2026-05-05 00:07 25.97450 -79.88796 27874 ft 382 kts 297°
2026-05-05 00:08 25.98853 -79.91301 27617 ft 381 kts 297°
2026-05-05 00:08 26.00253 -79.93800 27369 ft 379 kts 297°
2026-05-05 00:08 26.01631 -79.96262 27123 ft 378 kts 297°
2026-05-05 00:08 26.03017 -79.98740 26876 ft 377 kts 298°
2026-05-05 00:09 26.04403 -80.01217 26632 ft 376 kts 298°
2026-05-05 00:09 26.05784 -80.03689 26398 ft 375 kts 298°
2026-05-05 00:09 26.07161 -80.06154 26154 ft 374 kts 298°
2026-05-05 00:09 26.08530 -80.08606 25913 ft 373 kts 298°
2026-05-05 00:10 26.09899 -80.11060 25683 ft 372 kts 298°
2026-05-05 00:10 26.11267 -80.13512 25450 ft 372 kts 298°
2026-05-05 00:10 26.12626 -80.15947 25218 ft 371 kts 298°
2026-05-05 00:10 26.14139 -80.18285 24997 ft 374 kts 306°
2026-05-05 00:11 26.16003 -80.20321 24766 ft 379 kts 316°
2026-05-05 00:11 26.18223 -80.21941 24544 ft 385 kts 326°
2026-05-05 00:11 26.20633 -80.23269 24320 ft 387 kts 328°
2026-05-05 00:11 26.23078 -80.24533 24098 ft 387 kts 329°
2026-05-05 00:12 26.25515 -80.25785 23879 ft 386 kts 329°
2026-05-05 00:12 26.27949 -80.27040 23667 ft 385 kts 329°
2026-05-05 00:12 26.30345 -80.28281 23416 ft 384 kts 329°
2026-05-05 00:12 26.32768 -80.29540 23153 ft 383 kts 329°
2026-05-05 00:13 26.35174 -80.30792 22901 ft 381 kts 329°
2026-05-05 00:13 26.37573 -80.32042 22644 ft 380 kts 329°
2026-05-05 00:13 26.39965 -80.33289 22393 ft 378 kts 329°
2026-05-05 00:13 26.42345 -80.34532 22191 ft 377 kts 329°
2026-05-05 00:14 26.44718 -80.35771 21947 ft 376 kts 329°
2026-05-05 00:14 26.47082 -80.37007 21704 ft 375 kts 329°
2026-05-05 00:14 26.49441 -80.38240 21455 ft 374 kts 329°
2026-05-05 00:14 26.51791 -80.39469 21214 ft 372 kts 329°
2026-05-05 00:15 26.54138 -80.40698 21046 ft 371 kts 329°
2026-05-05 00:15 26.56470 -80.41919 21020 ft 371 kts 329°
2026-05-05 00:15 26.58813 -80.43147 21021 ft 371 kts 329°
2026-05-05 00:15 26.61120 -80.44355 21023 ft 371 kts 329°
2026-05-05 00:16 26.63513 -80.45462 21021 ft 373 kts 333°
2026-05-05 00:16 26.65950 -80.46482 21022 ft 374 kts 334°
2026-05-05 00:16 26.68387 -80.47483 21023 ft 374 kts 334°
2026-05-05 00:16 26.70835 -80.48487 21024 ft 373 kts 334°
2026-05-05 00:17 26.73273 -80.49491 21022 ft 373 kts 334°
2026-05-05 00:17 26.75710 -80.50495 21020 ft 373 kts 334°
2026-05-05 00:17 26.78150 -80.51503 21023 ft 373 kts 334°
2026-05-05 00:17 26.80585 -80.52510 21023 ft 373 kts 334°
2026-05-05 00:18 26.83027 -80.53520 21023 ft 373 kts 334°
2026-05-05 00:18 26.85463 -80.54528 21020 ft 373 kts 334°
2026-05-05 00:18 26.87903 -80.55539 21021 ft 373 kts 334°
2026-05-05 00:18 26.90337 -80.56548 21026 ft 373 kts 334°
2026-05-05 00:19 26.92774 -80.57558 21025 ft 373 kts 334°
2026-05-05 00:19 26.95212 -80.58570 21024 ft 373 kts 334°
2026-05-05 00:19 26.97647 -80.59580 21025 ft 373 kts 334°
2026-05-05 00:19 27.00056 -80.60581 21025 ft 373 kts 334°
2026-05-05 00:20 27.02492 -80.61593 21025 ft 373 kts 334°
2026-05-05 00:20 27.04927 -80.62605 21025 ft 374 kts 334°
2026-05-05 00:20 27.07368 -80.63620 21026 ft 373 kts 334°
2026-05-05 00:20 27.09812 -80.64637 20938 ft 373 kts 334°
2026-05-05 00:21 27.12236 -80.65649 20702 ft 372 kts 334°
2026-05-05 00:21 27.14663 -80.66665 20461 ft 371 kts 334°
2026-05-05 00:21 27.17084 -80.67679 20225 ft 371 kts 334°
2026-05-05 00:21 27.19494 -80.68689 19989 ft 369 kts 334°
2026-05-05 00:22 27.21899 -80.69698 19759 ft 368 kts 334°
2026-05-05 00:22 27.24293 -80.70702 19527 ft 367 kts 334°
2026-05-05 00:22 27.26689 -80.71708 19305 ft 366 kts 334°
2026-05-05 00:22 27.29076 -80.72711 19075 ft 365 kts 334°
2026-05-05 00:23 27.31457 -80.73711 18848 ft 364 kts 334°
2026-05-05 00:23 27.33799 -80.74696 18627 ft 363 kts 334°
2026-05-05 00:23 27.36162 -80.75690 18403 ft 362 kts 334°
2026-05-05 00:23 27.38520 -80.76698 18168 ft 361 kts 334°
2026-05-05 00:24 27.40861 -80.77709 17909 ft 360 kts 334°
2026-05-05 00:24 27.43202 -80.78723 17632 ft 359 kts 334°
2026-05-05 00:24 27.45531 -80.79733 17202 ft 358 kts 334°
2026-05-05 00:24 27.47847 -80.80736 16726 ft 355 kts 335°
2026-05-05 00:25 27.50145 -80.81732 16249 ft 354 kts 335°
2026-05-05 00:25 27.52448 -80.82731 15790 ft 353 kts 336°
2026-05-05 00:25 27.54731 -80.83722 15328 ft 351 kts 336°
2026-05-05 00:25 27.56989 -80.84761 15004 ft 349 kts 334°
2026-05-05 00:26 27.59196 -80.85888 14564 ft 348 kts 333°
2026-05-05 00:26 27.61359 -80.87020 14203 ft 346 kts 333°
2026-05-05 00:26 27.63570 -80.88181 13867 ft 346 kts 333°
2026-05-05 00:26 27.65721 -80.89310 13501 ft 345 kts 333°
2026-05-05 00:27 27.67891 -80.90447 13157 ft 343 kts 333°
2026-05-05 00:27 27.70050 -80.91580 12815 ft 341 kts 333°
2026-05-05 00:27 27.72199 -80.92707 12482 ft 340 kts 333°
2026-05-05 00:27 27.74341 -80.93831 12145 ft 338 kts 333°
2026-05-05 00:28 27.76474 -80.94950 11813 ft 337 kts 333°
2026-05-05 00:28 27.78593 -80.96062 11483 ft 335 kts 333°
2026-05-05 00:28 27.80701 -80.97170 11148 ft 333 kts 333°
2026-05-05 00:28 27.82801 -80.98273 10825 ft 331 kts 333°
2026-05-05 00:29 27.84828 -80.99337 10633 ft 319 kts 333°
2026-05-05 00:29 27.86816 -81.00382 10356 ft 310 kts 332°
2026-05-05 00:29 27.88749 -81.01399 10052 ft 304 kts 332°
2026-05-05 00:29 27.90649 -81.02399 9730 ft 297 kts 332°
2026-05-05 00:30 27.92500 -81.03372 9428 ft 290 kts 333°
2026-05-05 00:30 27.94348 -81.04244 9124 ft 284 kts 336°
2026-05-05 00:30 27.96169 -81.05030 8856 ft 278 kts 336°
2026-05-05 00:30 27.97963 -81.05789 8579 ft 272 kts 336°
2026-05-05 00:31 27.99713 -81.06528 8302 ft 263 kts 336°
2026-05-05 00:31 28.01392 -81.07236 8044 ft 251 kts 336°
2026-05-05 00:31 28.02997 -81.07914 7779 ft 242 kts 336°
2026-05-05 00:31 28.04492 -81.08715 7570 ft 234 kts 318°
2026-05-05 00:32 28.05433 -81.10149 7340 ft 226 kts 286°
2026-05-05 00:32 28.05733 -81.11883 7104 ft 226 kts 281°
2026-05-05 00:32 28.06236 -81.13579 6870 ft 229 kts 291°
2026-05-05 00:32 28.06885 -81.15201 6636 ft 228 kts 293°
2026-05-05 00:33 28.07563 -81.16829 6398 ft 227 kts 293°
2026-05-05 00:33 28.08236 -81.18443 6156 ft 226 kts 293°
2026-05-05 00:33 28.08899 -81.20040 5949 ft 222 kts 293°
2026-05-05 00:33 28.09564 -81.21642 5644 ft 226 kts 293°
2026-05-05 00:34 28.10230 -81.23255 5414 ft 227 kts 293°
2026-05-05 00:34 28.10895 -81.24881 5166 ft 226 kts 293°
2026-05-05 00:34 28.11567 -81.26490 4937 ft 226 kts 299°
2026-05-05 00:34 28.12521 -81.27862 4842 ft 216 kts 317°
2026-05-05 00:35 28.13779 -81.28700 4654 ft 208 kts 342°
2026-05-05 00:35 28.15204 -81.28906 4328 ft 206 kts
2026-05-05 00:35 28.16633 -81.28858 4010 ft 206 kts
2026-05-05 00:35 28.18053 -81.28757 3721 ft 203 kts
2026-05-05 00:36 28.19438 -81.28650 3433 ft 201 kts
2026-05-05 00:36 28.20825 -81.28542 3137 ft 200 kts
2026-05-05 00:36 28.22226 -81.28434 2912 ft 198 kts
2026-05-05 00:36 28.23608 -81.28326 2905 ft 199 kts
2026-05-05 00:37 28.24983 -81.28128 2908 ft 199 kts
2026-05-05 00:37 28.26353 -81.28098 2906 ft 200 kts
2026-05-05 00:37 28.27747 -81.28111 2858 ft 200 kts
2026-05-05 00:37 28.29134 -81.28110 2627 ft 198 kts
2026-05-05 00:38 28.30501 -81.28117 2350 ft 191 kts
2026-05-05 00:38 28.31802 -81.28132 2064 ft 180 kts
2026-05-05 00:38 28.33009 -81.28143 1845 ft 166 kts
2026-05-05 00:38 28.34125 -81.28154 1629 ft 155 kts
2026-05-05 00:39 28.35186 -81.28164 1444 ft 151 kts
2026-05-05 00:39 28.36239 -81.28173 1234 ft 151 kts
2026-05-05 00:39 28.37286 -81.28186 1032 ft 149 kts
2026-05-05 00:39 28.38275 -81.28195 836 ft 138 kts
2026-05-05 00:40 28.39218 -81.28205 668 ft 135 kts
2026-05-05 00:40 28.40161 -81.28214 476 ft 136 kts
2026-05-05 00:40 28.41099 -81.28225 300 ft 134 kts
2026-05-05 00:40 28.42030 -81.28234 138 ft 130 kts
2026-05-05 00:41 28.42846 -81.28239 107 ft 97 kts 357°
2026-05-05 00:41 28.43383 -81.28251 104 ft 41 kts 356°
2026-05-05 00:41 28.43575 -81.28362 107 ft 14 kts 335°
2026-05-05 00:41 28.43586 -81.28367 107 ft 0 kts 341°
2026-05-05 00:42 28.43598 -81.28371 107 ft 9 kts 344°
2026-05-05 00:42 28.43693 -81.28379 107 ft 15 kts 358°
2026-05-05 00:42 28.43798 -81.28380 109 ft 15 kts 360°
2026-05-05 00:42 28.43883 -81.28437 110 ft 19 kts 284°
2026-05-05 00:43 28.43873 -81.28586 110 ft 19 kts 268°
2026-05-05 00:43 28.43871 -81.28731 107 ft 16 kts 273°
2026-05-05 00:43 28.43869 -81.28844 110 ft 14 kts 269°
2026-05-05 00:43 28.43868 -81.28988 110 ft 23 kts 269°
2026-05-05 00:44 28.43868 -81.29172 103 ft 23 kts 269°
2026-05-05 00:44 28.43798 -81.29262 104 ft 14 kts 184°
2026-05-05 00:44 28.43700 -81.29262 105 ft 18 kts 179°
2026-05-05 00:44 28.43585 -81.29267 106 ft 3 kts 221°
2026-05-05 00:45 28.43555 -81.29330 108 ft 14 kts 264°
2026-05-05 00:45 28.43552 -81.29471 109 ft 0 kts 270°
2026-05-05 00:45 28.43550 -81.29597 107 ft 31 kts 269°
2026-05-05 00:45 28.43549 -81.29708 106 ft 8 kts 271°
2026-05-05 00:46 28.43550 -81.29835 106 ft 16 kts 271°
2026-05-05 00:46 28.43538 -81.29962 102 ft 11 kts 241°
2026-05-05 00:46 28.43516 -81.30008 104 ft 9 kts 253°
2026-05-05 00:46 28.43509 -81.30040 102 ft 0 kts 258°